Date String (YYYY-MM-DD hh:mm:ss) UTC,Instrument flags,Ambient pressure (hPa),Sample flow (lpm),Bypass flow (lpm),Sample temperature (°C),Ambient temperature (°C),ASC tube jacket temperature (°C),LED temperature (°C),Box temperature (°C),Sample RH (%),Mass concentration (μg/m³),Mass concentration (μg/m³)
DateTimeUTC,F1_M11,P_M11,Q1_M11,Q2_M11,T1_M11,T2_M11,T3_M11,T4_M11,T5_M11,U1_M11,X0_M11,X2_M11
2021-08-18 07:00:00,,0823.0,5.01,0.00,29.4,27.9,00.0,38.5,31.2,18.9,0021.97,0016.36
2021-08-18 07:01:00,,0822.9,4.99,0.00,29.4,28.1,00.0,38.5,31.2,19.0,0021.71,0016.38
2021-08-18 07:02:00,,0822.8,5.00,0.00,29.5,28.2,00.0,38.5,31.3,18.8,0022.02,0016.43
2021-08-18 07:03:00,,0822.8,5.01,0.00,29.5,28.3,00.0,38.5,31.3,18.8,0021.98,0016.49
2021-08-18 07:04:00,,0822.7,5.00,0.00,29.5,28.4,00.0,38.5,31.4,18.7,0021.86,0016.52
2021-08-18 07:05:00,,0822.7,4.99,0.00,29.5,28.5,00.0,38.6,31.4,18.6,0022.04,0016.56
2021-08-18 07:06:00,,0822.6,5.00,0.00,29.6,28.6,00.0,38.6,31.4,18.8,0021.39,0016.59
2021-08-18 07:07:00,,0822.6,4.99,0.00,29.6,28.7,00.0,38.6,31.5,18.8,0021.30,0016.61
2021-08-18 07:08:00,,0822.7,5.01,0.00,29.7,28.7,00.0,38.6,31.5,18.5,0021.45,0016.68
2021-08-18 07:09:00,,0822.6,5.00,0.00,29.7,28.8,00.0,38.6,31.5,18.4,0021.59,0016.76
2021-08-18 07:10:00,,0822.5,4.99,0.00,29.7,28.8,00.0,38.7,31.6,18.3,0021.63,0016.78
2021-08-18 07:11:00,,0822.5,5.01,0.00,29.8,28.8,00.0,38.7,31.6,18.3,0022.17,0016.79
2021-08-18 07:12:00,,0822.4,5.00,0.00,29.7,27.5,00.0,38.7,31.2,18.3,0022.41,0016.86
2021-08-18 07:13:00,,0822.4,5.00,0.00,29.6,26.2,00.0,38.7,30.9,18.5,0022.08,0016.82
2021-08-18 07:14:00,,0822.4,5.00,0.00,29.5,26.3,00.0,38.6,30.9,18.6,0022.03,0016.84
2021-08-18 07:15:00,,0822.4,5.00,0.00,29.4,26.7,00.0,38.6,30.9,18.8,0021.92,0016.82
2021-08-18 07:16:00,,0822.4,5.00,0.00,29.4,27.1,00.0,38.6,31.0,18.9,0021.84,0016.84
2021-08-18 07:17:00,,0822.4,5.00,0.00,29.4,27.4,00.0,38.6,31.1,19.0,0021.77,0016.81
2021-08-18 07:18:00,,0822.4,4.99,0.00,29.4,27.6,00.0,38.6,31.2,19.2,0021.67,0016.80
2021-08-18 07:19:00,,0822.4,5.00,0.00,29.4,27.9,00.0,38.6,31.2,19.2,0021.75,0016.79
2021-08-18 07:20:00,,0822.4,4.99,0.00,29.5,28.0,00.0,38.5,31.2,19.3,0021.72,0016.74
2021-08-18 07:21:00,,0822.4,5.00,0.00,29.5,28.2,00.0,38.6,31.3,19.0,0021.93,0016.74
2021-08-18 07:22:00,,0822.4,5.01,0.00,29.5,28.3,00.0,38.6,31.3,19.2,0021.60,0016.78
2021-08-18 07:23:00,,0822.3,4.99,0.00,29.6,28.4,00.0,38.6,31.3,19.5,0021.44,0016.75
2021-08-18 07:24:00,,0822.3,5.00,0.00,29.6,28.5,00.0,38.6,31.4,19.8,0021.79,0016.74
2021-08-18 07:25:00,,0822.2,4.99,0.00,29.6,28.6,00.0,38.6,31.4,20.2,0021.98,0016.68
2021-08-18 07:26:00,,0822.2,5.02,0.00,29.7,28.6,00.0,38.6,31.5,20.7,0022.05,0016.65
2021-08-18 07:27:00,,0822.2,5.00,0.00,29.7,28.7,00.0,38.7,31.5,21.1,0022.08,0016.63
2021-08-18 07:28:00,,0822.2,5.00,0.00,29.7,28.7,00.0,38.7,31.5,21.5,0022.32,0016.70
2021-08-18 07:29:00,,0822.2,5.00,0.00,29.7,28.8,00.0,38.7,31.5,21.7,0022.42,0016.66
2021-08-18 07:30:00,,0822.2,4.99,0.00,29.8,28.8,00.0,38.7,31.6,21.1,0022.56,0016.63
2021-08-18 07:31:00,,0822.2,5.03,0.00,29.8,28.8,00.0,38.8,31.6,21.1,0022.62,0016.66
2021-08-18 07:32:00,,0822.2,4.99,0.00,29.8,28.1,00.0,38.8,31.4,21.2,0022.48,0016.63
2021-08-18 07:33:00,,0822.2,5.00,0.00,29.6,26.4,00.0,38.7,30.9,21.5,0023.16,0016.61
2021-08-18 07:34:00,,0822.2,5.00,0.00,29.5,26.2,00.0,38.7,30.9,22.0,0023.82,0016.61
2021-08-18 07:35:00,,0822.2,5.01,0.00,29.4,26.5,00.0,38.7,30.9,22.5,0023.85,0016.59
2021-08-18 07:36:00,,0822.2,4.99,0.00,29.4,26.9,00.0,38.6,31.0,22.7,0024.42,0016.58
2021-08-18 07:37:00,,0822.2,5.01,0.00,29.4,27.2,00.0,38.6,31.0,22.3,0024.71,0016.56
2021-08-18 07:38:00,,0822.2,4.99,0.00,29.4,27.5,00.0,38.6,31.1,22.2,0024.66,0016.55
2021-08-18 07:39:00,,0822.2,5.01,0.00,29.4,27.8,00.0,38.6,31.2,22.2,0024.55,0016.47
2021-08-18 07:40:00,,0822.2,4.99,0.00,29.5,28.0,00.0,38.6,31.2,21.5,0024.86,0016.47
2021-08-18 07:41:00,,0822.3,5.01,0.00,29.5,28.1,00.0,38.6,31.3,21.6,0024.92,0016.50
2021-08-18 07:42:00,,0822.3,5.00,0.00,29.5,28.3,00.0,38.6,31.3,21.7,0026.41,0016.50
2021-08-18 07:43:00,,0822.3,5.00,0.00,29.5,28.4,00.0,38.6,31.4,21.7,0027.09,0016.53
2021-08-18 07:44:00,,0822.3,4.99,0.00,29.6,28.4,00.0,38.6,31.4,21.8,0027.44,0016.60
2021-08-18 07:45:00,,0822.2,5.01,0.00,29.6,28.5,00.0,38.6,31.4,22.1,0027.22,0016.67
2021-08-18 07:46:00,,0822.2,5.00,0.00,29.6,28.6,00.0,38.7,31.5,21.7,0027.29,0016.73
2021-08-18 07:47:00,,0822.2,5.01,0.00,29.7,28.6,00.0,38.7,31.5,21.4,0026.81,0016.79
2021-08-18 07:48:00,,0822.2,5.00,0.00,29.7,28.7,00.0,38.7,31.5,21.2,0026.83,0016.93
2021-08-18 07:49:00,,0822.1,4.99,0.00,29.7,28.8,00.0,38.7,31.6,21.1,0027.61,0017.06
2021-08-18 07:50:00,,0822.1,5.01,0.00,29.8,28.8,00.0,38.7,31.6,21.1,0028.06,0017.18
2021-08-18 07:51:00,,0822.1,4.99,0.00,29.8,28.9,00.0,38.8,31.7,20.9,0028.52,0017.25
2021-08-18 07:52:00,,0822.1,5.01,0.00,29.8,28.9,00.0,38.8,31.7,20.9,0028.44,0017.31
2021-08-18 07:53:00,,0822.1,5.00,0.00,29.8,28.7,00.0,38.8,31.6,20.6,0027.47,0017.37
2021-08-18 07:54:00,,0822.1,5.01,0.00,29.7,26.9,00.0,38.8,31.1,20.2,0027.76,0017.44
2021-08-18 07:55:00,,0822.1,5.00,0.00,29.6,26.2,00.0,38.8,30.9,20.1,0027.56,0017.43
2021-08-18 07:56:00,,0822.1,5.00,0.00,29.5,26.4,00.0,38.7,31.0,20.2,0027.50,0017.41
2021-08-18 07:57:00,,0822.1,5.00,0.00,29.5,26.8,00.0,38.7,31.0,20.2,0027.74,0017.39
2021-08-18 07:58:00,,0822.2,5.00,0.00,29.5,27.2,00.0,38.7,31.1,20.0,0028.12,0017.36
2021-08-18 07:59:00,,0822.2,4.99,0.00,29.5,27.5,00.0,38.6,31.1,20.0,0027.98,0017.28
